User: anonymous   Login
Location: Unspecified
(0.0000°N, 0.0000°E)
Time: 09:58:08
(UTC+00:00)
Language:

ICEYE-X2 - Orbit

View from above orbital plane
View from above orbital plane
View from above satellite
View from above satellite

Ground track
Ground track

The orbit data is extracted from the following two-line orbital elements,

1 43761U 18099D   19112.17168411 -.00000154  00000-0 -87784-5 0  9992
2 43761  97.7508 184.8709 0015123 153.6505 206.5488 14.94996421 20827
Epoch (UTC): 22 April 2019 04:07:13
Eccentricity: 0.0015123
inclination: 97.7508°
perigee height: 572 km
apogee height: 593 km
right ascension of ascending node: 184.8709°
argument of perigee: 153.6505°
revolutions per day: 14.94996421
mean anomaly at epoch: 206.5488°
orbit number at epoch: 2082

The dashed part of the orbit path shows where the satellite is in the earth's shadow,  

DLR